Theta_e
311 309 309 309 315 319 318 321 322 321 320 317 318 319 319 324 324 324 323 324 323 324 325 326 329 327 325 329 331 331 331 339 344 339 341 350 352 350 352 351 351 351 350 349 344 336 335 336 336 335 334 332 328 325 323 324 327 332 335 335 335 334 335 334 334 333 331 331 331 330 327 322 318 319 323 324 325 326 326 326 326 321 320 321 323 323 318 315 313 314 316 317 316 312 311 311 311
313 311 310 311 319 322 321 322 320 320 316 314 316 320 321 324 323 322 323 324 327 330 331 330 331 329 328 333 335 334 334 342 349 351 350 350 351 351 352 351 351 350 349 347 340 335 336 336 336 336 334 332 328 325 323 323 326 332 335 335 335 334 335 334 334 331 329 330 328 324 321 318 318 321 324 326 326 326 324 323 322 320 318 321 327 326 321 319 316 315 316 316 318 314 310 311 311
318 314 312 315 323 324 325 323 318 317 315 314 315 320 322 323 322 322 325 328 333 332 332 332 333 331 329 332 332 333 336 342 350 352 350 351 351 350 351 352 352 350 349 344 338 336 336 336 336 336 334 332 329 325 324 323 327 332 334 334 334 334 334 333 331 327 326 326 323 321 320 319 321 323 326 327 326 324 321 320 319 317 316 317 325 330 330 329 325 324 319 316 318 315 311 310 310
318 314 314 318 323 324 325 323 319 316 314 315 315 321 323 322 323 327 330 334 334 332 332 332 333 334 334 336 335 335 342 346 348 350 351 351 351 350 351 352 351 350 348 343 340 339 336 336 336 336 335 332 329 326 324 324 327 330 332 334 333 332 330 328 325 323 324 324 324 324 324 323 323 326 327 328 326 324 323 323 321 317 316 316 319 327 332 332 331 332 327 321 318 316 312 310 310
315 316 316 318 323 323 322 322 320 315 315 316 316 320 323 322 323 326 329 333 334 333 334 333 334 336 338 341 338 341 347 348 347 349 351 351 351 350 350 351 351 350 348 344 342 341 337 337 336 335 335 333 331 328 327 325 326 328 330 331 329 326 324 323 323 325 326 328 328 327 326 325 326 328 329 330 329 329 328 327 325 320 317 316 316 320 329 331 331 333 332 328 320 316 313 310 310
314 316 316 320 324 323 320 318 318 316 317 320 319 320 322 321 323 323 323 327 332 336 335 334 335 335 338 341 343 348 351 348 347 349 351 351 351 351 351 351 351 350 347 345 343 341 337 336 336 335 335 333 333 331 329 328 326 326 326 325 323 323 324 326 327 328 329 330 330 328 328 328 329 331 332 333 333 334 334 331 329 326 322 320 318 317 322 325 326 329 333 332 324 315 313 311 311
316 316 316 320 323 322 319 316 317 318 319 321 320 321 321 321 321 321 321 322 326 333 334 335 334 334 337 339 345 350 351 350 350 349 351 351 351 352 351 350 351 350 347 345 344 341 337 336 335 335 335 334 335 333 332 330 329 327 326 325 325 326 327 329 329 329 330 330 330 329 329 330 331 332 333 334 335 336 336 335 333 331 329 327 325 321 320 320 320 324 330 332 324 315 313 312 312
316 317 318 318 320 320 317 316 317 319 320 320 321 321 321 320 320 321 320 321 323 329 332 334 333 334 335 337 345 349 350 351 352 350 351 350 351 352 351 350 350 349 347 345 345 342 337 337 336 335 336 336 335 335 334 332 331 329 328 328 328 329 329 329 329 330 330 330 331 330 330 331 332 333 334 335 335 336 336 336 335 333 333 331 329 326 324 322 321 321 325 327 321 315 314 312 313
316 318 319 317 318 318 315 316 316 319 321 320 321 321 321 320 320 320 321 321 322 326 330 333 332 332 333 339 347 348 350 351 351 350 350 350 351 351 350 349 349 349 346 345 345 342 337 337 336 336 336 336 336 336 335 333 332 330 330 330 329 330 330 330 330 331 331 331 331 331 332 332 333 334 334 335 335 335 336 336 335 334 333 332 331 329 328 329 328 324 320 320 318 315 314 314 314
317 318 320 317 317 316 314 315 316 319 320 320 321 321 321 319 320 320 320 321 322 324 328 332 332 332 333 340 347 348 350 351 350 349 349 349 351 350 350 348 346 348 346 345 345 341 337 336 336 336 336 336 336 336 335 333 332 331 331 330 330 331 331 331 331 331 331 332 332 331 331 331 332 333 333 334 333 334 335 335 334 334 334 333 332 331 331 332 332 329 322 317 318 316 314 315 316
318 317 319 317 315 314 314 315 316 319 320 321 320 320 320 319 320 320 320 320 322 322 326 332 331 333 334 339 347 350 350 351 350 350 349 349 349 349 350 347 345 347 346 346 345 340 336 336 336 335 335 336 337 337 335 334 333 332 331 331 332 331 331 332 332 332 332 332 331 330 330 330 330 331 331 332 332 333 334 334 333 334 333 333 332 331 332 333 332 329 324 318 317 317 315 314 314
318 317 317 316 315 314 316 316 317 320 320 320 319 320 321 320 320 319 320 321 322 322 326 331 330 333 334 339 348 351 350 350 350 349 350 349 349 350 348 346 345 346 345 345 344 339 336 336 336 335 335 337 337 337 336 335 334 332 332 332 332 332 332 332 332 332 332 331 330 328 327 327 327 328 329 331 332 332 332 332 332 333 333 332 331 331 332 332 330 329 327 322 319 318 316 315 314
318 318 318 315 316 316 317 316 318 319 318 320 319 320 321 322 322 320 320 320 322 322 324 331 334 334 336 344 347 349 350 350 349 349 349 349 349 350 348 346 345 345 345 345 344 339 337 337 335 334 335 336 337 336 336 335 334 333 333 333 334 334 333 332 332 332 331 330 328 326 326 326 326 326 328 330 331 331 331 331 331 333 332 332 331 329 328 328 329 330 327 324 322 320 317 317 316
318 320 319 316 317 317 317 316 318 317 317 320 320 320 322 324 325 322 322 321 322 322 325 332 335 335 338 344 345 347 351 350 350 349 349 349 350 350 348 347 345 345 344 344 344 340 338 337 335 336 336 336 337 336 336 336 335 334 334 335 335 334 333 332 331 331 330 328 327 327 327 327 326 327 329 330 330 330 330 330 331 332 331 331 330 326 324 324 325 325 321 320 323 322 320 320 320
317 318 319 318 317 316 317 317 317 316 317 321 320 320 321 325 327 326 324 322 322 325 330 333 335 335 337 339 340 344 350 350 350 349 349 349 350 349 348 347 344 344 343 343 344 340 338 336 336 336 336 336 336 336 336 336 336 336 334 333 333 332 332 331 329 329 328 328 328 329 328 327 327 327 327 327 327 327 328 329 330 330 329 329 327 325 325 324 323 322 320 318 319 322 322 321 323
317 319 319 317 315 316 317 318 317 316 318 320 320 320 320 325 328 327 328 324 326 332 333 335 336 335 335 338 341 345 349 350 349 350 350 349 349 348 347 346 343 343 342 343 342 341 339 336 336 336 335 336 336 336 337 337 336 335 332 329 330 330 330 328 327 327 327 329 330 330 329 327 328 326 325 326 326 325 326 326 326 327 327 326 325 325 325 323 321 322 322 319 316 319 322 321 323
318 318 318 316 315 315 317 319 317 317 319 319 321 320 319 324 326 328 331 328 331 333 333 336 336 335 337 340 345 348 350 349 350 350 349 349 349 347 346 345 344 343 342 342 341 342 340 336 336 336 335 335 336 336 336 337 335 334 331 329 330 330 328 325 325 326 327 330 331 331 330 329 330 328 326 328 326 325 325 324 324 326 324 323 323 322 320 318 318 319 320 321 317 316 320 321 321
318 317 316 316 316 317 318 319 318 319 320 319 320 320 319 323 326 328 331 331 332 332 336 336 334 337 338 339 344 348 349 349 350 349 348 349 348 348 346 345 344 342 340 340 340 341 339 336 337 336 336 336 336 336 336 336 334 332 330 330 330 328 325 324 324 325 328 330 331 332 331 331 331 329 329 328 328 328 326 324 324 324 322 321 320 320 319 318 318 318 318 320 319 316 318 322 322
317 317 316 316 317 318 320 319 319 319 319 320 319 320 319 320 325 328 329 331 334 332 334 335 333 337 339 342 345 347 348 349 349 348 348 348 347 347 346 345 343 341 340 339 339 340 339 338 338 337 336 336 336 335 336 335 332 331 330 330 329 326 324 323 324 326 329 331 332 332 332 331 329 329 330 329 329 329 327 324 324 323 322 321 320 320 319 319 318 317 319 320 320 322 323 326 328
317 317 316 316 318 319 320 319 319 319 319 320 319 320 320 320 324 328 329 331 332 330 330 331 332 335 339 344 346 346 348 348 348 348 348 347 347 347 346 344 343 342 341 339 339 339 338 339 339 338 337 336 336 335 335 333 331 330 330 330 330 327 324 323 325 327 330 332 332 331 332 331 329 329 330 330 330 329 327 325 324 323 322 321 320 323 321 319 320 320 321 322 322 327 329 329 331
317 316 316 317 319 318 320 319 319 319 319 319 319 319 319 320 322 326 328 329 328 328 329 329 331 335 339 342 345 347 347 348 348 347 348 347 347 347 346 344 343 342 341 339 338 337 337 338 338 338 338 335 335 335 334 332 331 331 331 331 330 327 326 327 329 330 331 332 332 332 332 331 328 329 329 329 329 329 328 327 326 325 325 324 323 327 327 324 326 326 326 326 327 330 331 330 331
317 317 317 318 319 318 319 319 318 318 318 318 319 319 319 319 321 324 326 327 327 327 328 327 332 337 336 338 344 346 347 348 347 347 347 346 346 346 344 343 342 342 341 340 338 336 335 336 338 338 337 336 335 334 332 330 330 332 333 332 330 329 329 331 331 331 330 331 332 333 333 331 330 330 329 329 330 329 329 329 327 327 328 327 326 328 329 329 330 331 330 330 330 331 330 330 331
317 317 318 319 318 318 318 318 318 317 318 319 319 318 319 318 319 323 324 326 326 327 330 328 332 337 335 337 344 346 346 347 346 347 346 345 345 345 343 342 342 341 340 341 338 335 334 335 337 338 337 336 335 333 331 330 331 332 332 331 330 330 330 330 330 332 332 331 332 333 333 332 332 331 328 329 332 330 330 329 328 329 329 328 327 327 329 330 330 331 331 331 331 331 330 329 329
317 317 318 318 318 318 318 318 317 317 317 318 318 318 318 319 319 321 323 325 326 327 329 327 329 335 337 336 343 346 346 346 345 346 345 344 344 343 343 342 342 341 339 340 339 335 334 334 337 339 338 336 334 332 331 331 332 332 331 330 330 330 330 330 333 335 335 334 332 332 332 331 330 330 328 329 332 331 331 330 328 329 330 328 328 329 330 330 330 330 330 330 331 331 330 330 329
317 316 318 318 318 318 317 317 317 317 317 317 318 318 318 318 319 319 321 323 326 326 326 325 326 334 338 337 342 346 347 346 344 344 343 343 343 342 342 342 341 340 339 340 339 335 333 333 335 336 336 335 333 331 329 329 331 332 331 330 330 330 330 331 334 335 336 334 331 330 330 330 329 329 330 330 332 331 330 330 328 330 331 330 330 331 331 331 330 330 330 330 330 330 329 329 329
317 317 317 317 318 318 317 317 317 317 317 317 318 318 319 318 318 318 320 321 324 324 324 325 326 333 340 341 344 347 347 345 344 343 343 343 342 342 341 341 340 339 339 339 338 335 333 334 335 335 334 334 333 330 329 329 330 331 331 331 331 331 331 331 332 332 332 331 330 329 328 328 329 331 332 332 332 331 330 330 329 329 330 330 331 333 333 332 332 331 330 330 329 330 329 328 329
317 318 317 317 317 318 317 317 317 317 317 317 317 317 318 319 318 318 319 320 322 323 324 325 327 332 337 342 346 347 346 344 343 343 343 343 342 342 340 339 339 338 338 338 338 336 334 335 335 335 334 333 331 330 330 329 330 331 331 331 331 331 331 332 332 331 331 330 329 329 327 326 328 330 331 332 332 329 330 330 329 329 328 329 332 333 333 333 332 331 331 331 331 331 330 327 328
318 317 317 317 317 318 318 317 317 317 317 317 317 318 318 319 318 318 320 321 322 322 325 326 327 332 335 342 346 345 344 343 343 344 343 343 342 341 339 338 338 338 339 338 337 336 333 335 335 334 334 333 331 331 331 330 331 332 332 332 331 331 331 331 330 330 330 329 329 328 325 325 328 329 330 331 330 329 330 330 328 328 326 327 331 332 334 333 332 332 331 331 331 330 329 328 329
317 316 316 316 316 317 317 317 317 317 317 317 317 316 317 318 317 318 321 322 322 322 325 326 328 334 339 344 344 343 343 342 343 343 343 342 342 341 339 338 338 337 339 337 336 336 334 335 335 333 332 331 330 330 330 331 332 333 332 331 330 330 330 328 327 327 327 329 328 327 325 327 329 330 330 329 328 328 330 330 330 329 326 328 331 332 333 334 333 332 331 330 331 330 330 329 328
316 316 315 315 315 315 317 317 317 317 317 317 317 314 314 318 318 319 320 322 322 322 324 325 329 336 339 344 343 342 343 342 344 343 341 342 341 340 338 338 337 336 338 336 336 336 333 332 332 329 329 330 331 330 331 332 332 332 332 330 331 329 327 325 324 326 327 327 326 326 329 329 331 331 329 328 328 328 329 329 330 330 329 330 329 329 332 334 333 332 331 331 331 331 330 330 329
315 315 314 315 313 313 317 318 316 316 316 318 317 312 314 318 318 319 320 322 322 322 324 324 331 336 339 344 342 342 342 341 343 342 341 342 340 339 338 337 336 336 337 337 336 334 331 330 328 326 328 331 332 333 332 332 331 332 332 331 328 327 325 324 324 326 325 326 327 328 330 330 330 329 329 328 327 329 329 330 330 330 330 330 328 328 331 333 334 332 332 332 331 331 331 330 330
315 313 313 314 312 313 318 318 317 317 316 318 316 313 315 317 319 319 318 322 321 322 323 323 332 336 339 343 342 342 342 342 342 341 340 340 340 339 337 336 336 336 336 336 334 331 328 328 327 327 329 331 332 333 333 333 332 332 332 329 326 325 325 324 325 325 326 327 328 328 329 329 327 328 329 329 328 330 331 331 331 329 328 329 329 330 330 332 333 333 333 332 332 332 330 330 329
314 313 312 313 313 313 316 318 317 317 317 317 316 314 316 317 320 321 320 321 321 322 322 323 332 336 339 342 342 342 342 342 342 340 338 338 339 338 338 337 336 336 336 336 334 330 328 327 329 331 331 332 332 331 331 332 332 330 329 328 327 326 324 326 326 325 326 326 327 328 329 329 328 329 330 330 330 330 330 332 332 330 327 327 329 329 329 332 333 331 331 332 333 332 330 330 330
314 314 313 313 314 313 314 317 318 318 316 317 316 315 316 317 320 321 320 321 321 322 321 323 333 335 338 340 342 342 341 342 341 339 338 338 338 337 337 337 336 335 335 338 335 331 331 331 332 333 333 333 330 330 330 331 330 328 328 327 326 326 325 328 328 326 328 329 330 331 330 328 328 329 330 329 330 331 331 332 332 331 328 325 326 327 328 331 331 329 328 330 332 332 331 331 330
313 313 313 313 315 313 314 316 317 318 316 316 316 315 316 318 319 320 320 321 321 323 321 324 332 334 335 337 340 341 341 341 340 338 337 337 336 336 336 336 336 336 337 340 336 333 335 333 332 334 333 332 328 328 329 327 325 325 328 328 328 329 328 329 328 328 330 330 331 332 330 328 327 327 328 329 329 330 331 332 333 331 329 324 323 326 326 328 329 327 327 328 330 331 331 331 330
315 315 314 313 313 314 315 317 318 318 316 316 316 316 316 317 318 320 320 320 320 322 321 322 330 333 336 336 335 336 339 340 340 340 336 335 336 337 337 336 336 337 338 338 333 333 335 331 331 332 331 331 329 326 325 324 325 327 330 329 329 329 328 328 328 329 330 330 331 330 328 328 327 327 327 328 328 329 331 332 331 329 327 323 323 325 324 325 326 325 327 328 329 331 330 329 328
317 316 315 314 313 314 317 318 318 318 316 316 316 316 317 317 318 319 319 320 320 322 322 323 328 332 335 335 332 333 339 338 337 338 336 333 333 335 336 335 336 337 335 335 331 331 331 329 331 332 329 328 326 323 324 327 329 330 330 330 329 328 326 326 327 329 329 328 329 328 326 327 327 327 326 327 328 330 332 332 330 329 327 322 323 326 323 323 324 324 326 326 328 331 330 328 328
316 316 315 314 313 315 317 318 318 318 317 316 317 316 317 319 318 319 320 321 321 321 322 324 327 331 335 335 332 334 339 337 335 337 337 334 333 333 334 333 336 335 332 330 331 331 329 330 333 334 331 328 326 327 329 331 331 329 329 328 327 325 326 326 326 329 327 325 327 327 326 325 327 328 328 327 328 330 331 331 332 332 330 325 324 326 324 324 324 324 326 326 328 331 331 331 329
317 315 315 314 314 315 316 318 318 318 317 317 317 317 317 319 319 319 320 321 323 321 322 325 325 330 334 333 332 334 337 336 334 337 338 335 332 331 332 330 332 332 328 327 331 333 332 333 334 335 333 330 330 331 330 331 332 330 330 327 326 326 326 326 326 328 327 325 326 327 327 325 326 328 328 327 328 330 330 330 331 332 332 328 324 324 324 324 324 325 327 329 331 331 331 331 330
317 315 314 313 315 315 314 317 318 317 317 317 318 318 319 320 320 320 321 322 323 321 321 325 323 326 333 333 332 334 335 334 333 333 335 334 331 331 332 332 330 329 329 330 331 332 333 334 334 333 329 325 329 329 326 330 331 327 323 320 320 320 319 321 324 327 328 326 325 326 327 326 327 328 328 328 329 329 328 328 329 329 330 328 324 323 323 324 325 325 326 329 331 330 330 331 330
316 316 314 314 315 314 314 317 318 318 318 318 319 317 317 319 319 319 320 321 321 323 325 329 328 328 334 333 332 332 334 334 334 332 333 333 332 332 332 332 329 328 331 332 330 328 329 329 332 332 326 320 326 328 326 327 325 319 314 312 314 317 319 323 326 326 326 326 325 325 326 327 328 330 330 330 330 329 327 327 328 328 329 328 327 325 323 323 323 323 324 326 328 329 330 331 330
314 316 315 315 316 316 317 318 319 317 316 318 318 314 313 317 319 319 320 319 320 325 326 327 329 329 333 333 331 331 334 334 333 332 332 333 334 333 332 331 330 330 332 332 329 327 326 326 331 333 327 321 323 327 327 324 323 321 319 320 323 325 326 327 327 326 325 324 325 326 326 326 327 327 328 328 328 328 328 326 327 328 328 327 329 328 326 324 323 324 324 324 327 329 329 329 330
313 316 316 316 317 317 318 318 317 315 315 319 318 313 312 315 318 319 320 319 321 324 323 323 326 326 330 333 332 332 334 333 332 331 331 334 336 334 334 334 333 332 332 331 329 328 327 329 332 332 326 320 321 326 328 326 325 326 327 327 327 327 327 327 326 326 325 323 324 324 324 323 324 325 324 324 324 323 324 323 323 325 326 326 326 327 327 325 326 327 327 327 328 328 326 328 330
313 317 316 315 316 317 318 318 317 316 317 319 319 315 313 314 316 320 320 319 320 321 321 321 323 324 326 329 331 332 332 332 332 332 332 335 336 336 336 334 333 331 328 328 328 328 327 327 331 333 330 325 323 327 329 324 324 328 329 327 326 326 324 322 323 323 322 321 321 321 321 321 324 325 324 324 324 322 321 321 321 323 324 324 324 325 326 325 325 325 326 328 327 327 326 325 328
314 317 317 315 316 317 317 317 316 317 317 316 317 316 313 314 317 320 320 318 318 319 321 321 321 325 325 326 331 331 330 331 333 335 336 337 336 337 336 334 332 332 328 325 324 325 325 324 326 330 333 331 329 329 326 322 324 327 328 327 325 323 320 319 321 321 320 320 320 322 323 323 324 324 324 324 324 323 322 322 322 323 324 324 324 324 324 324 325 324 324 327 327 327 327 324 325
316 317 317 316 315 315 317 317 315 316 315 315 317 316 314 314 317 318 318 317 317 320 320 320 322 325 324 327 332 330 331 332 334 337 337 337 336 336 335 333 333 333 331 329 326 325 326 326 325 328 332 332 330 328 325 323 324 325 327 326 325 322 320 321 321 319 319 320 321 322 322 322 323 324 324 325 325 324 324 324 324 324 324 323 324 324 323 323 323 322 323 326 326 326 326 323 325
316 317 316 316 316 316 317 317 315 315 314 315 317 317 314 313 316 317 318 318 319 321 321 322 324 326 327 330 331 331 331 331 333 336 337 336 335 335 334 334 333 332 331 329 326 326 328 327 325 326 330 331 330 328 326 323 322 324 327 327 325 322 321 322 321 320 321 321 321 322 322 323 323 324 324 324 324 322 322 323 324 324 322 322 324 324 324 323 321 320 320 322 322 323 324 323 324
316 317 316 315 315 315 315 315 315 314 314 315 316 318 315 314 318 320 321 323 322 322 323 324 325 327 329 332 331 331 330 329 330 333 334 334 334 334 333 333 332 329 326 326 326 326 327 327 324 323 328 331 330 327 325 321 320 324 327 327 326 321 318 321 322 320 322 322 322 322 322 323 323 324 323 323 323 322 322 322 323 323 323 322 324 323 324 324 323 321 319 320 321 321 322 323 323
316 316 316 314 313 314 314 313 313 314 315 316 317 318 315 316 322 324 323 325 325 324 325 324 326 327 327 328 330 330 329 329 331 331 332 333 333 333 333 332 331 328 325 326 327 325 326 326 323 322 325 327 326 325 323 319 318 323 327 328 328 322 318 321 321 320 321 320 321 321 321 322 322 323 323 322 322 322 323 323 322 323 322 321 322 323 323 324 324 323 321 321 322 323 323 325 325
315 315 315 314 313 314 314 314 313 313 315 316 318 318 315 316 323 323 322 325 327 326 327 326 327 327 325 325 327 328 329 329 330 331 331 332 333 332 331 330 330 328 325 326 327 326 326 326 322 321 322 320 320 322 323 320 318 321 325 327 328 324 321 322 321 320 320 319 320 321 321 322 323 322 322 321 322 323 323 322 321 321 321 320 320 320 321 322 323 323 323 322 323 324 324 324 324
315 316 316 315 314 314 314 313 313 313 315 316 317 318 314 315 322 323 321 325 327 327 328 328 327 326 326 325 325 327 329 329 330 331 332 333 333 331 330 329 329 328 325 325 325 326 326 324 319 317 317 316 317 319 320 321 319 319 321 323 326 325 322 322 321 320 320 319 319 321 322 322 322 321 321 321 321 321 318 317 317 318 319 320 320 319 320 321 322 322 322 321 321 320 320 320 320
316 316 315 315 315 315 314 314 315 314 314 316 316 317 317 319 322 323 322 324 327 328 328 329 328 328 328 328 327 327 328 328 329 330 332 334 333 331 329 328 327 326 323 322 323 324 325 322 318 316 316 316 316 316 317 320 319 318 320 321 324 324 320 319 321 320 319 319 320 322 322 322 321 320 319 318 318 316 314 313 314 314 316 318 318 319 319 319 320 320 320 318 316 315 315 315 313
316 315 314 315 317 317 314 314 316 314 314 316 316 316 319 321 321 322 322 323 325 327 328 329 330 330 330 330 329 328 328 328 327 328 332 334 333 331 329 326 323 322 321 321 320 321 321 320 319 318 318 318 317 316 318 319 319 318 320 321 323 324 320 316 315 314 312 315 319 322 322 321 320 317 314 314 316 316 315 314 312 310 311 313 314 316 315 315 316 317 315 314 313 312 311 310 309
316 315 315 316 317 317 316 314 314 314 313 314 315 315 316 318 320 322 322 323 324 324 326 328 330 331 331 332 330 329 328 328 329 330 331 332 332 331 329 327 324 322 320 319 318 319 319 319 319 318 318 318 319 319 320 319 319 319 318 320 322 324 321 315 312 308 306 308 312 316 319 318 315 311 308 309 311 312 311 310 308 307 307 308 310 311 311 312 313 312 311 309 307 307 307 306 306
317 317 317 316 315 315 315 314 314 314 313 312 314 314 315 316 318 320 322 324 324 325 325 327 328 330 331 331 330 328 328 330 331 331 331 331 331 330 328 326 325 323 321 320 319 319 320 319 319 319 318 319 320 321 320 319 320 320 318 319 322 323 322 317 311 306 305 305 306 308 311 310 308 307 305 306 309 310 310 308 307 306 306 305 307 308 309 310 310 307 306 306 305 305 306 307 307
315 316 317 317 316 315 315 314 314 313 313 313 314 314 316 320 320 321 323 324 326 327 327 327 328 329 329 329 328 327 328 329 329 329 329 329 329 329 328 325 324 325 324 322 321 321 321 321 320 321 321 321 321 320 321 320 320 321 320 321 322 322 322 318 310 306 305 305 305 305 306 305 306 306 306 308 311 312 311 310 309 307 306 305 306 306 307 307 306 306 308 306 305 307 308 310 311
315 314 315 315 316 316 315 315 314 313 313 314 313 315 319 321 321 323 323 323 325 327 327 327 328 328 328 328 328 328 328 328 327 327 328 328 327 328 327 326 326 326 324 323 323 324 324 323 323 323 322 322 322 322 323 322 321 322 321 321 322 321 322 318 310 308 309 307 305 305 305 305 305 306 307 311 314 313 312 312 311 309 308 307 306 306 306 308 308 309 310 309 309 311 312 312 312
315 315 315 315 315 315 315 315 316 314 314 314 313 316 321 321 319 321 321 321 325 326 326 327 326 326 326 326 327 327 327 326 326 326 327 327 327 326 327 326 326 326 326 325 326 327 327 326 326 326 325 325 325 326 326 325 324 324 324 324 323 322 321 319 313 312 312 310 308 305 305 305 305 307 310 312 314 314 314 313 313 312 310 309 309 309 310 311 311 309 308 310 313 313 312 312 313
Wind_Speed
4 5 7 10 9 7 10 10 8 6 6 9 9 9 9 10 6 3 5 4 4 6 5 4 3 4 6 5 6 6 8 9 8 4 2 5 8 9 9 15 21 20 17 17 26 29 25 23 21 20 18 17 17 17 18 18 19 20 21 21 21 20 18 16 15 13 12 10 10 9 9 9 8 9 10 10 10 9 8 8 7 6 6 6 5 6 7 7 7 6 7 7 8 8 9 10 10
3 5 7 9 9 9 10 11 8 5 8 9 8 10 9 5 5 10 9 5 3 2 1 4 5 6 6 6 7 7 2 10 12 10 9 9 11 10 12 19 21 21 19 20 29 29 25 23 21 20 18 17 17 18 18 18 20 21 22 21 21 19 17 15 14 12 11 10 10 9 9 8 9 10 10 10 10 9 8 7 7 5 6 6 6 5 5 7 7 7 7 7 8 8 8 9 9
5 6 7 9 9 10 9 8 8 7 8 8 8 11 10 5 5 5 2 4 3 3 1 3 4 5 6 7 6 5 2 10 10 11 11 9 12 11 15 21 19 19 19 23 28 27 26 23 21 20 19 18 18 18 18 18 20 21 21 20 20 18 15 14 13 11 11 11 11 10 9 8 9 10 10 10 10 10 9 8 7 6 6 6 7 6 5 7 7 7 8 8 8 8 8 9 9
9 9 9 10 10 9 8 6 7 9 8 7 6 9 10 6 3 4 3 2 2 3 4 4 4 4 6 5 2 1 5 8 7 8 10 9 11 14 18 21 18 17 19 23 24 23 26 24 22 20 19 19 18 18 18 19 19 20 20 19 18 16 15 13 12 12 12 12 12 11 10 9 9 10 10 10 10 9 10 10 9 8 7 6 7 7 7 6 7 7 7 8 9 9 8 8 9
9 9 10 11 9 5 6 6 7 9 9 7 4 3 5 3 4 6 3 2 2 5 5 6 4 3 5 3 1 1 4 5 7 8 9 9 12 15 19 21 19 20 21 24 23 22 25 24 22 21 20 19 19 18 18 19 19 20 20 19 18 16 15 14 14 13 13 13 12 12 11 10 10 10 10 10 9 9 10 11 10 9 8 7 7 7 7 6 7 7 7 7 9 11 9 9 9
8 9 10 12 10 6 6 7 8 9 10 11 6 3 3 4 5 1 2 3 5 5 5 6 3 5 4 2 5 7 5 1 5 6 7 9 13 15 19 21 20 21 23 25 23 22 25 24 22 21 20 19 18 18 18 19 19 20 20 19 18 17 16 15 14 14 13 13 12 11 11 10 10 10 10 10 10 10 11 11 10 10 9 8 7 7 7 6 6 7 7 6 9 12 11 10 10
8 10 10 10 10 7 7 8 9 9 10 13 9 3 5 4 2 4 4 5 7 7 8 6 4 5 4 5 5 9 6 3 5 6 7 11 14 16 20 20 20 23 25 25 21 22 25 24 22 21 20 19 18 18 18 18 18 19 19 19 18 17 16 15 14 13 13 12 12 11 10 10 10 10 10 11 10 11 11 10 10 9 9 8 7 6 7 6 6 7 7 6 9 12 12 11 10
10 11 10 8 7 6 8 8 9 9 7 11 9 1 4 2 2 5 4 5 5 8 11 8 8 7 3 5 5 6 6 7 8 8 9 12 15 17 19 18 19 25 26 24 20 21 24 23 22 21 20 19 18 18 17 17 18 18 18 18 17 16 15 14 13 12 12 11 11 10 9 9 9 10 10 11 10 10 11 10 10 9 8 7 6 5 5 6 6 7 7 6 8 11 12 12 11
11 12 9 8 7 6 8 8 10 10 8 6 6 3 1 3 6 7 5 6 4 6 11 11 11 8 4 7 7 5 4 7 8 10 10 12 14 16 16 16 18 24 25 22 19 22 25 24 23 21 20 19 19 18 17 18 18 18 17 17 16 15 14 13 13 12 11 11 10 9 9 9 9 9 10 10 9 9 11 10 9 8 7 6 6 5 4 5 5 5 7 7 8 10 11 12 11
12 13 8 6 7 8 8 9 8 9 10 5 3 3 1 4 8 9 8 9 7 7 9 9 10 7 5 9 8 5 4 7 10 11 11 12 13 14 13 13 15 20 22 20 18 22 25 24 23 22 21 20 20 19 19 19 19 18 17 17 16 15 14 13 12 11 10 10 9 8 8 8 9 9 9 9 8 8 10 10 9 7 6 5 5 5 5 6 5 4 6 8 8 10 11 12 12
11 11 9 6 7 8 7 8 8 9 10 4 3 4 2 4 8 9 10 10 8 10 8 7 8 7 5 8 8 4 5 7 10 11 12 12 12 12 12 11 12 16 18 18 18 23 26 24 23 22 22 22 21 20 19 19 18 18 18 18 17 15 14 13 12 10 9 9 8 7 8 8 7 7 7 8 9 9 9 9 7 7 6 5 5 5 6 7 6 4 4 8 8 10 12 13 13
10 8 8 7 7 8 7 8 8 8 7 5 6 5 2 5 9 9 11 10 9 11 9 8 7 8 6 6 6 4 6 7 11 12 12 12 12 12 10 9 10 13 15 18 20 24 25 24 23 23 24 22 21 20 18 18 19 19 19 18 16 15 14 13 12 10 9 8 8 8 8 7 7 7 7 7 9 9 9 8 7 7 5 5 5 4 5 5 5 4 4 6 7 8 10 12 13
11 7 7 7 7 8 9 9 6 4 4 6 5 6 2 6 9 10 12 11 11 11 11 10 6 9 7 10 7 5 7 8 11 12 12 12 12 12 10 7 8 10 14 19 22 24 25 24 25 25 25 23 22 20 17 19 19 19 19 17 16 15 13 12 11 9 8 8 8 8 8 8 8 8 8 8 8 8 8 7 7 6 5 5 4 4 4 4 4 4 3 4 6 7 9 10 11
13 9 7 7 8 10 9 8 6 5 6 5 3 4 1 6 6 9 11 10 12 11 8 11 7 9 7 10 7 6 7 9 11 12 12 12 13 13 11 8 8 10 14 19 22 23 25 26 27 27 26 25 23 20 19 19 18 19 18 16 15 13 13 12 11 9 9 9 9 9 8 8 9 9 9 8 7 7 7 6 6 6 5 5 4 4 3 3 4 3 2 4 6 6 8 10 10
14 12 8 6 8 9 7 8 6 6 3 6 5 0 5 5 5 10 12 13 13 8 5 9 7 8 8 4 5 11 11 11 13 12 13 13 13 13 12 11 11 9 12 19 23 24 26 28 29 27 27 26 23 21 20 20 18 17 16 15 13 12 13 12 10 10 10 10 10 9 9 9 10 10 9 8 8 8 7 7 6 6 6 5 4 4 3 3 2 1 1 2 5 6 8 10 11
14 12 7 6 9 9 7 7 7 7 0 7 4 2 6 5 6 11 11 13 7 7 6 8 6 3 8 8 9 15 15 13 14 13 14 14 13 15 13 11 11 10 9 17 22 22 27 30 29 28 27 26 24 22 21 20 18 15 15 15 13 11 12 12 12 12 12 12 11 10 10 10 10 10 10 9 9 8 8 8 7 7 6 6 5 4 3 2 2 1 1 1 3 5 7 8 10
12 10 7 7 9 9 6 5 6 5 3 5 2 1 7 5 8 9 7 12 7 10 9 7 7 3 10 12 12 15 14 14 15 13 15 13 11 14 13 9 7 8 11 15 16 17 24 27 28 28 27 26 24 22 22 21 19 16 15 15 13 12 13 14 14 13 13 13 11 11 11 11 10 10 10 10 9 9 9 8 8 7 7 6 5 4 2 2 2 1 1 1 2 4 6 7 9
10 7 8 8 9 8 7 5 3 3 3 5 3 2 7 2 6 5 7 13 9 12 10 7 9 10 12 10 12 13 12 14 15 13 14 12 10 12 12 9 7 9 13 14 14 17 23 25 27 27 26 26 24 23 23 23 21 18 16 15 14 14 15 14 14 14 14 13 12 11 11 11 10 9 10 10 9 9 9 9 8 7 6 5 4 3 2 2 2 1 1 2 3 3 5 7 7
11 7 8 8 9 8 5 4 3 3 3 4 2 2 4 4 1 5 7 9 9 11 11 11 13 14 11 10 12 13 12 14 14 13 13 12 11 11 12 11 8 10 13 13 15 19 23 25 25 26 26 25 25 24 24 24 21 18 16 15 15 15 15 14 14 14 14 14 12 11 11 11 10 8 9 9 10 9 9 8 8 8 7 6 5 3 3 3 2 2 1 2 4 6 7 7 6
13 10 8 9 12 10 3 3 5 5 5 3 1 2 4 3 1 6 8 8 11 12 11 12 13 16 13 9 10 12 13 13 13 13 13 12 12 11 12 13 12 12 13 14 16 19 22 24 24 26 26 25 26 26 24 23 21 19 17 16 16 16 16 16 15 15 14 13 12 12 11 11 9 9 9 8 9 9 8 8 8 8 7 6 5 4 4 3 4 4 4 4 7 9 7 6 7
12 11 10 10 10 9 4 3 7 5 4 5 3 5 7 3 2 7 9 9 9 10 11 12 11 18 14 10 10 11 13 13 13 13 13 12 12 11 11 12 13 13 14 15 16 19 20 23 26 25 25 26 28 27 24 22 21 20 19 18 17 16 17 16 14 15 15 13 12 12 11 10 10 10 9 9 8 9 8 8 9 8 8 6 5 5 4 4 5 4 4 6 7 6 4 6 7
10 13 15 15 11 6 5 5 2 3 4 5 6 7 4 1 6 9 9 9 7 8 10 8 12 20 13 11 12 12 14 14 13 13 13 12 12 11 11 12 12 12 12 13 16 17 17 20 25 25 24 27 28 26 24 22 22 21 20 19 17 17 17 16 15 15 15 14 11 9 10 10 10 11 10 10 10 9 10 10 9 9 8 7 7 6 5 5 5 5 4 5 5 5 6 7 7
10 12 15 17 16 8 7 4 3 4 7 7 8 6 5 6 9 8 10 8 5 6 6 4 8 16 13 12 12 13 15 14 14 13 12 12 11 11 11 11 13 11 10 12 15 15 14 18 23 22 21 25 28 26 24 23 23 22 20 18 18 17 17 17 15 13 13 13 11 8 8 8 8 9 9 10 10 10 10 9 9 10 10 8 8 6 6 6 6 6 6 5 5 6 5 6 7
13 12 12 15 16 12 10 7 4 6 8 9 8 7 6 9 8 6 11 8 4 5 6 4 4 11 13 12 11 13 15 14 14 13 12 11 11 11 10 10 12 11 11 11 12 14 15 18 22 22 20 23 26 24 22 23 23 22 20 19 18 18 18 17 14 12 12 13 12 10 8 7 8 9 10 10 9 9 8 8 10 11 11 10 9 7 5 5 5 5 7 6 6 6 5 6 6
15 13 13 12 11 12 13 13 11 9 9 10 10 9 9 11 8 5 10 8 7 7 7 7 6 8 13 14 14 14 16 15 15 14 12 11 10 11 10 10 11 11 12 11 12 15 17 20 22 22 20 21 23 23 22 22 23 21 20 19 18 18 18 17 15 14 14 12 12 9 7 7 8 8 9 8 7 6 7 8 10 11 10 9 8 6 5 6 5 6 7 7 6 6 6 6 7
13 16 18 13 10 11 12 15 15 12 11 11 11 11 12 12 8 7 11 9 7 8 9 9 8 9 11 13 14 16 17 16 15 14 12 11 11 11 11 11 10 12 12 12 13 15 19 22 22 21 19 20 22 22 22 22 22 21 20 19 17 18 18 17 16 15 14 12 10 7 8 9 8 7 7 8 7 6 7 6 8 10 10 9 9 8 7 7 7 7 8 7 6 6 6 7 8
9 13 19 18 14 13 12 15 16 14 13 13 11 11 14 12 7 9 14 12 8 10 10 8 9 11 10 10 13 16 16 15 14 13 12 12 13 11 11 10 10 12 12 11 14 16 21 22 20 21 20 21 22 22 22 21 21 20 20 18 16 16 17 16 14 13 12 11 8 7 10 10 8 8 8 9 9 8 7 5 5 9 11 11 11 10 8 8 7 7 8 7 7 7 6 7 8
12 9 12 17 17 14 14 15 14 13 12 13 13 12 15 12 9 14 14 13 11 11 10 9 11 11 13 12 14 15 14 14 13 14 14 13 13 12 11 11 11 12 10 12 15 17 22 21 19 20 21 22 21 21 20 19 19 19 18 18 16 15 15 14 13 12 10 9 8 9 11 11 9 10 10 9 8 8 7 5 5 7 10 12 12 11 9 9 9 8 9 9 9 8 7 8 8
16 11 9 13 15 15 16 16 15 14 11 13 14 12 15 12 12 18 13 11 11 12 10 10 12 13 18 15 15 15 14 13 13 14 13 12 12 11 11 11 11 12 11 14 16 16 21 22 21 22 22 22 20 20 19 18 19 18 18 17 15 14 13 13 12 11 10 10 10 10 12 13 11 10 11 10 9 9 7 6 7 7 9 11 11 12 11 10 9 10 10 9 9 8 8 9 9
15 12 9 10 12 13 17 18 17 16 13 14 13 9 13 14 16 21 15 12 12 13 11 12 12 14 19 17 16 15 14 14 14 13 12 11 10 10 10 11 11 12 13 16 16 17 20 23 24 24 22 20 18 18 18 17 17 17 17 15 13 13 13 13 12 11 12 12 11 11 12 13 12 10 11 12 11 11 9 8 8 7 9 9 9 11 13 11 10 10 10 9 8 8 9 9 10
11 11 9 9 9 10 16 19 18 16 13 14 12 8 10 13 18 24 20 15 14 14 13 13 11 16 16 16 15 14 14 13 14 12 11 10 9 10 10 10 12 13 14 16 16 19 22 22 24 23 19 17 15 15 16 14 14 14 13 13 12 12 12 12 12 12 13 12 11 12 13 13 13 13 12 13 14 12 8 7 8 7 8 8 8 10 12 12 11 10 9 8 9 8 8 9 10
10 10 9 10 9 11 14 18 18 15 13 16 14 8 8 14 19 26 21 15 15 15 13 13 11 17 16 14 14 13 13 13 13 12 10 10 9 10 11 11 13 13 14 15 16 21 24 22 22 20 16 16 15 14 14 12 10 11 11 12 12 10 11 9 9 11 12 11 11 12 14 13 12 12 12 13 14 12 8 6 7 8 9 8 9 9 9 10 11 11 10 9 9 9 8 7 7
10 9 10 11 11 12 10 14 16 16 14 16 16 10 9 14 12 19 19 15 16 16 13 14 12 17 16 13 12 12 13 14 14 12 11 10 9 10 11 13 13 13 15 15 16 21 22 21 20 17 15 15 15 14 13 11 8 9 10 11 11 9 9 9 8 8 9 10 10 11 12 12 10 11 11 11 12 11 8 7 8 9 10 10 10 10 9 9 9 11 11 10 10 9 8 7 6
9 9 10 11 13 13 10 12 15 18 16 15 16 12 13 9 6 14 15 14 16 16 15 15 13 16 16 15 13 13 13 15 14 13 12 11 11 11 11 12 13 13 15 13 15 19 17 17 16 15 15 13 15 15 12 11 9 9 9 9 9 9 9 8 6 4 6 7 8 9 11 10 10 12 10 10 10 9 8 8 8 8 9 9 10 9 10 11 9 9 10 11 11 9 8 9 8
9 10 10 10 13 13 13 11 12 17 18 15 14 13 16 13 8 12 13 14 15 16 16 15 16 17 17 16 14 13 13 16 15 15 14 12 12 13 11 12 13 13 13 12 15 17 13 15 16 15 15 13 14 16 12 11 11 9 10 10 10 11 9 7 4 3 5 6 7 8 9 9 9 11 9 9 10 8 8 8 8 8 7 7 8 8 10 11 9 8 8 9 10 9 9 10 10
12 12 11 12 12 10 14 11 10 14 16 14 14 13 15 17 12 11 13 14 16 16 15 14 15 17 17 16 16 15 14 15 15 16 16 13 13 13 13 13 13 12 12 12 16 20 17 17 17 15 15 14 14 15 12 12 13 11 12 11 10 10 9 7 6 5 4 5 5 6 6 5 5 8 8 9 9 7 8 9 9 8 6 7 8 9 10 10 8 8 8 8 8 8 8 10 12
10 11 11 14 12 9 14 11 10 10 11 12 16 14 13 15 14 11 12 15 14 15 14 14 15 17 20 20 20 19 16 14 14 16 16 14 13 13 12 12 12 12 12 15 20 23 20 18 17 14 15 15 13 13 11 10 12 11 10 10 9 9 8 7 6 5 5 4 3 3 4 4 5 6 7 8 8 8 9 9 7 5 6 7 7 9 10 10 9 10 8 7 7 7 6 8 11
8 9 8 11 12 9 14 13 11 9 8 9 13 14 14 14 12 13 13 14 12 14 14 15 18 17 21 19 18 17 15 15 16 17 16 16 16 14 13 13 13 15 17 21 24 22 19 16 12 11 15 16 11 10 11 9 10 9 9 8 8 7 7 7 5 5 4 4 4 2 1 2 3 4 5 5 6 7 7 6 4 4 6 7 7 9 11 12 11 10 9 7 6 7 7 7 9
8 8 7 8 9 9 12 11 9 7 7 8 12 13 13 12 12 14 12 12 11 16 17 17 20 17 20 21 19 18 16 15 18 18 15 16 19 18 18 20 20 20 22 24 21 17 16 12 8 8 10 13 11 10 10 11 10 9 10 9 8 7 7 7 6 5 4 4 5 4 3 2 1 2 3 2 3 5 5 6 5 6 6 6 8 10 11 12 12 10 10 8 6 7 7 7 8
9 8 8 7 8 10 9 9 9 8 7 9 12 10 9 10 13 13 10 11 13 15 15 16 19 17 20 23 19 19 18 17 18 18 13 15 20 22 22 24 25 24 22 19 16 14 13 10 7 5 5 10 12 11 9 9 10 9 10 9 8 7 6 7 7 6 6 4 4 4 4 3 2 3 1 0 3 6 6 6 5 5 5 5 6 7 8 10 10 10 10 9 8 7 7 7 7
10 12 11 9 11 12 8 6 9 10 8 9 10 6 7 11 13 11 9 13 14 12 11 12 14 15 18 24 19 19 20 17 16 17 14 17 22 21 21 22 24 23 19 17 17 17 15 11 7 5 6 10 12 11 8 7 7 7 8 8 8 8 8 8 7 6 6 5 4 4 4 4 4 5 4 3 3 5 4 3 3 2 3 4 5 5 4 6 7 8 9 9 9 8 7 6 6
10 13 14 14 13 12 8 6 7 7 7 11 11 7 8 10 13 12 10 12 12 12 13 15 16 17 16 24 21 19 16 11 14 15 17 22 23 22 21 20 20 18 15 16 18 17 14 12 8 8 11 12 12 10 8 7 6 7 8 8 8 8 8 8 7 6 6 5 5 4 3 3 3 3 5 4 4 3 3 3 3 2 2 4 6 5 4 5 6 6 7 7 9 9 8 7 5
8 11 16 18 13 10 11 10 8 7 5 9 13 10 7 7 11 12 12 13 14 14 15 17 20 20 17 20 21 18 15 13 14 18 22 23 24 24 21 19 19 18 16 16 17 16 14 11 9 12 13 13 12 11 10 9 7 8 7 5 5 6 7 7 7 7 6 5 5 4 3 3 3 1 2 2 2 1 2 2 2 2 2 2 3 5 5 6 5 6 6 6 7 8 9 7 5
8 9 16 17 13 11 10 8 8 7 3 5 12 12 7 5 8 11 13 14 15 16 15 15 18 20 20 20 20 19 18 18 18 25 27 23 22 21 20 20 21 21 21 20 20 18 17 14 11 12 14 14 15 14 12 10 9 8 7 5 5 5 6 7 8 7 7 6 5 5 4 4 4 2 2 3 2 2 2 2 2 2 2 1 2 4 6 6 6 7 7 7 7 6 7 7 6
12 9 12 15 15 13 10 8 9 8 5 5 10 11 8 5 7 10 12 13 16 16 16 15 16 17 19 19 19 21 21 21 20 23 23 19 20 20 19 20 20 19 20 21 22 21 17 15 14 13 14 14 15 14 12 11 10 10 8 6 5 5 7 7 7 6 6 6 6 6 5 4 5 4 3 3 3 2 2 2 3 4 5 3 3 4 5 7 8 7 7 8 8 7 7 8 7
13 7 8 12 15 13 11 9 9 8 7 7 9 11 8 5 7 9 10 12 13 13 13 14 12 13 15 15 19 23 24 22 18 19 19 18 21 21 20 20 18 17 17 16 19 20 17 15 16 16 14 12 11 11 11 11 11 10 8 6 6 6 7 7 6 6 6 6 6 6 6 5 5 5 4 4 4 3 2 3 3 4 6 6 5 5 5 6 7 6 7 8 8 8 8 8 8
7 4 8 11 11 10 8 7 8 7 7 9 10 12 10 5 7 8 7 7 9 11 11 10 10 11 12 12 16 19 23 22 19 18 19 21 22 21 21 21 21 21 18 17 20 23 22 20 20 19 16 12 11 9 10 11 10 10 9 7 7 7 8 7 6 6 5 5 6 6 6 5 5 5 5 4 4 4 4 5 5 5 4 5 6 5 5 5 6 5 6 7 7 8 7 7 9
6 7 9 8 8 8 7 7 8 7 7 10 10 12 11 5 3 5 6 5 2 6 9 8 5 6 7 11 13 16 19 21 22 20 19 23 24 22 23 23 25 25 22 22 26 27 25 24 25 26 21 14 11 9 9 11 11 11 10 8 7 7 8 8 6 6 6 5 5 6 6 6 6 5 5 4 5 5 5 6 7 5 4 6 6 6 6 6 6 5 5 5 5 5 5 6 9
8 9 9 8 7 7 7 8 8 7 6 7 9 11 9 4 3 4 8 9 7 7 9 7 4 2 4 11 13 13 16 19 22 22 21 25 27 25 23 23 25 26 24 24 26 27 26 25 27 29 24 17 13 10 8 10 12 12 11 9 7 8 9 8 6 6 6 5 6 6 6 6 6 5 4 4 5 6 5 6 6 5 5 6 7 7 7 7 7 6 6 5 5 5 6 7 7
10 10 9 9 7 7 8 8 8 8 5 5 8 9 8 6 7 6 6 6 8 11 9 8 6 5 6 12 13 12 16 19 20 21 23 26 26 23 21 21 24 26 26 24 25 27 26 25 27 26 22 19 15 10 8 9 12 13 11 10 9 8 9 8 7 6 6 6 6 7 7 7 7 6 5 5 6 6 6 7 7 8 7 6 7 8 8 9 8 7 7 8 7 7 8 9 8
11 11 9 8 6 6 7 6 6 6 6 7 8 7 7 6 7 9 8 7 9 13 11 10 9 7 7 11 14 14 14 17 17 17 22 26 25 24 23 22 23 25 26 26 26 28 28 28 28 25 22 23 21 16 13 11 12 13 11 10 9 8 9 9 8 7 7 6 7 8 7 8 7 7 6 6 7 7 7 7 8 10 10 8 8 8 8 10 10 8 9 10 10 9 9 9 9
9 10 9 8 6 5 4 1 1 2 3 7 7 4 2 4 7 9 11 10 11 12 12 11 10 9 9 11 15 16 13 15 15 14 20 25 25 24 24 23 24 25 27 27 26 27 28 28 28 27 26 27 27 23 20 17 14 13 12 11 10 9 10 10 9 8 9 9 8 8 8 8 8 7 7 8 8 7 7 7 8 11 11 9 9 9 8 9 10 8 9 10 10 9 9 9 8
6 9 9 7 6 6 5 3 3 2 5 5 7 5 5 7 7 8 10 10 11 11 10 11 11 11 12 13 15 15 14 14 14 15 20 24 23 23 22 23 27 29 28 28 27 26 27 27 28 29 28 27 28 27 25 22 17 14 13 13 12 11 9 9 10 9 10 11 11 10 10 10 9 9 9 9 9 8 8 9 9 11 12 11 10 9 8 9 10 8 9 11 11 10 10 9 9
5 7 7 5 4 5 5 4 5 6 7 5 7 8 8 7 6 7 10 10 10 10 9 11 13 13 14 14 15 15 15 16 16 17 20 21 22 23 20 21 26 28 30 31 30 28 28 29 30 30 29 28 27 27 25 22 17 15 15 14 13 12 10 9 9 9 10 12 13 14 14 13 12 12 13 12 10 9 9 9 10 10 11 12 11 10 9 9 9 9 10 10 11 11 11 11 11
9 5 5 6 5 5 5 4 4 6 7 6 7 10 8 6 7 10 10 9 10 11 9 10 12 14 14 15 15 15 16 18 18 18 18 19 21 20 20 23 25 24 26 28 28 28 28 28 28 28 27 26 26 25 23 20 17 16 16 15 13 13 11 9 9 10 10 11 12 13 14 14 13 13 15 14 11 9 9 9 9 10 10 11 11 11 10 10 9 10 10 10 11 12 12 13 13
10 7 6 6 5 5 5 4 5 6 6 6 7 9 4 2 2 8 10 10 9 10 10 10 12 14 15 15 15 14 14 15 16 16 15 15 16 17 20 24 22 18 20 23 25 27 27 27 28 27 26 24 23 22 20 19 18 17 17 16 15 13 11 10 10 11 11 10 9 10 12 14 13 13 14 13 10 9 9 8 8 9 10 10 11 11 11 11 11 10 9 10 12 12 12 13 12
10 8 7 6 4 3 3 4 6 6 6 6 7 7 4 6 5 6 9 9 8 10 11 11 13 15 15 15 15 15 15 14 14 15 13 11 13 14 16 18 15 14 17 21 22 22 22 23 24 26 27 25 22 19 18 19 18 16 16 17 16 14 12 12 12 11 9 9 10 10 11 13 14 13 13 12 10 9 9 9 8 9 9 10 12 13 12 12 12 12 11 12 12 11 10 11 12
8 9 9 9 7 5 5 6 7 6 6 5 6 4 4 4 4 5 7 6 8 11 12 13 14 15 15 16 16 15 15 14 13 14 14 13 13 13 13 13 14 15 17 17 16 16 17 17 18 21 23 23 19 16 15 15 14 14 15 14 15 15 14 14 14 11 8 9 10 10 11 12 13 12 11 10 10 10 9 9 9 9 9 10 11 13 12 11 12 14 15 14 11 9 10 11 11
Wind_Direction
172 160 158 152 153 187 203 210 227 206 225 251 239 245 240 234 245 275 240 216 257 230 217 264 263 264 269 293 302 309 342 4 19 21 75 104 140 150 148 145 147 154 154 166 173 167 162 161 159 158 157 155 154 153 157 161 165 168 169 169 168 167 165 163 161 160 155 148 144 143 141 138 138 138 137 140 144 147 148 149 157 162 139 129 134 148 159 171 185 182 173 160 148 141 130 123 116
172 167 160 160 177 216 209 204 243 220 209 243 237 247 246 199 234 249 245 261 304 64 129 248 236 236 265 294 293 284 353 51 57 73 87 110 131 138 146 145 150 152 150 161 166 162 160 160 159 159 158 155 154 153 156 160 163 167 169 169 168 167 166 164 163 162 157 151 146 143 140 137 138 135 136 142 143 143 142 142 147 154 141 136 139 142 150 160 174 179 180 172 160 154 139 133 126
177 191 169 176 199 231 231 205 240 244 217 233 229 235 234 195 219 228 250 315 347 16 271 243 237 214 223 232 242 249 92 71 70 86 102 124 135 141 147 148 154 153 154 157 159 161 159 159 160 160 158 155 153 152 154 157 161 165 167 167 167 165 164 163 162 162 157 150 144 140 138 137 135 133 137 143 147 146 140 137 133 137 141 145 151 145 142 148 155 162 174 175 168 164 150 142 136
175 193 185 201 206 218 239 219 229 248 241 238 233 222 213 212 212 102 93 309 328 256 232 216 209 194 239 247 218 208 75 77 68 85 110 123 137 145 149 153 156 150 151 152 153 160 160 160 162 160 156 153 150 149 151 153 157 160 163 163 163 162 160 160 158 158 154 147 142 138 136 134 133 136 140 142 148 150 143 139 132 127 131 142 150 147 146 148 148 152 162 170 169 166 160 150 144
173 195 199 217 222 222 240 232 229 240 247 250 254 199 184 173 100 90 138 207 213 235 226 219 196 162 250 303 33 66 60 71 69 81 104 111 133 143 151 156 153 148 149 148 151 162 164 162 161 158 154 150 147 147 147 148 151 153 156 158 158 157 154 153 153 152 150 145 141 137 134 135 139 142 141 144 145 146 145 140 135 129 126 128 131 136 145 154 154 148 152 169 169 167 165 156 151
175 205 207 226 250 285 257 233 231 232 244 257 281 49 85 88 89 132 199 195 206 234 239 234 212 171 197 99 64 56 60 75 85 87 103 125 144 147 153 157 150 144 146 149 160 172 167 161 159 156 151 149 146 146 145 145 146 148 150 152 151 149 147 147 149 149 146 143 142 139 138 141 146 146 143 148 145 145 147 142 138 132 129 126 124 128 135 146 148 145 151 169 167 166 167 161 158
185 202 195 223 247 260 248 238 234 233 231 243 271 47 85 73 81 234 229 219 201 206 225 235 234 193 161 144 98 64 70 59 80 100 119 136 147 151 154 157 147 140 146 156 170 177 167 160 156 153 151 149 149 147 146 145 145 146 146 147 147 144 145 147 147 146 144 144 144 143 144 150 154 152 150 149 148 149 147 145 139 135 134 128 129 132 129 129 130 138 151 167 168 168 167 164 164
206 210 194 219 232 214 233 243 240 249 222 220 258 7 78 27 310 258 234 234 208 192 199 200 230 222 151 145 102 72 74 63 84 103 117 131 141 150 152 154 150 144 151 163 170 170 167 162 157 154 154 153 152 149 147 147 147 146 146 145 144 145 147 147 147 145 145 147 148 149 150 157 160 159 156 148 151 153 148 150 142 137 139 130 131 134 128 119 117 131 140 152 168 174 170 168 169
213 221 207 222 238 222 229 243 238 250 238 207 243 251 336 272 263 269 247 238 237 215 204 190 213 225 164 135 106 105 90 77 101 106 115 129 139 147 150 155 158 153 154 166 166 162 165 161 159 159 159 158 152 149 148 148 148 147 146 145 144 146 149 149 149 147 149 154 155 159 159 162 161 161 160 150 155 158 153 155 149 144 145 138 133 130 129 111 104 121 127 135 160 177 175 172 172
206 219 226 225 243 240 225 238 235 243 244 224 237 235 298 253 250 259 249 241 226 230 221 193 206 216 179 137 117 122 99 101 113 113 122 129 140 145 147 156 166 161 155 163 163 160 163 159 160 163 162 158 152 151 151 150 149 148 146 144 146 149 152 153 153 153 156 161 163 165 164 164 162 162 163 154 154 163 158 154 154 153 150 148 141 136 139 129 131 147 136 137 153 172 178 176 176
206 213 238 241 236 243 233 235 226 232 233 222 243 220 210 248 257 255 251 253 237 239 213 185 217 210 170 116 104 115 107 120 124 123 129 132 143 141 145 160 171 167 158 158 163 164 162 159 162 164 161 157 155 155 153 153 152 150 148 146 151 154 156 159 159 160 161 164 167 172 170 167 167 167 168 160 156 165 159 149 159 167 160 157 155 147 147 149 160 187 160 143 156 169 178 181 181
220 206 225 241 236 242 242 243 232 231 211 197 221 184 161 240 251 247 242 243 236 244 205 181 218 203 173 109 105 135 127 131 134 133 132 136 139 132 147 166 168 169 159 156 164 165 161 162 165 163 161 159 158 157 158 160 157 154 152 152 156 158 161 163 165 165 165 170 172 173 171 166 169 170 174 169 162 165 160 158 171 180 180 171 166 163 164 173 180 187 157 141 160 170 172 176 182
230 222 220 237 248 251 249 254 254 269 240 218 207 126 117 246 244 238 240 238 227 239 210 180 201 207 162 108 116 135 134 138 136 138 136 135 133 130 142 157 167 169 156 156 162 164 165 167 166 164 162 160 160 163 168 166 164 162 159 160 162 161 163 165 168 168 169 174 172 167 162 160 161 162 172 172 165 164 165 173 179 178 185 187 178 178 188 195 196 189 166 148 163 172 168 167 177
228 240 245 245 247 256 260 264 255 262 251 212 156 83 253 248 249 244 246 245 229 234 200 161 192 212 139 103 134 155 148 146 141 142 138 132 131 136 140 137 160 170 152 155 164 167 172 171 166 166 163 162 166 170 172 168 169 167 164 166 164 162 164 165 169 169 171 174 167 163 159 156 155 154 163 165 162 161 165 175 178 179 185 199 191 179 191 185 195 200 189 170 170 179 170 164 169
231 245 259 261 252 253 248 254 262 268 250 121 113 313 257 234 245 246 237 241 226 209 159 143 201 218 162 151 168 168 167 154 149 147 138 133 135 137 138 129 134 148 145 157 165 168 175 172 167 168 166 170 172 172 170 167 170 170 169 167 163 167 165 163 166 167 171 173 167 163 161 158 154 152 155 158 158 156 162 173 177 186 189 201 196 176 188 185 198 207 192 174 173 187 179 171 168
234 252 260 251 253 252 235 231 247 260 124 95 110 211 242 205 220 249 231 239 218 159 183 163 193 232 147 138 122 150 160 153 152 148 139 137 145 143 144 141 121 106 120 157 164 166 175 172 170 174 175 178 177 175 171 166 169 169 172 172 169 171 165 162 165 167 170 171 168 166 165 161 157 155 158 159 160 160 164 172 177 188 193 195 195 184 189 195 211 210 171 132 161 183 185 178 172
229 246 251 243 243 246 247 220 218 249 95 91 72 162 254 198 186 247 234 236 215 165 194 166 164 94 102 114 118 140 147 153 155 147 142 140 149 147 149 165 148 111 112 146 162 169 176 173 175 181 179 179 179 178 171 163 167 167 169 172 168 166 167 168 165 167 173 174 174 173 170 163 160 162 166 166 166 167 167 172 175 184 194 192 192 188 182 191 209 216 137 98 117 157 174 177 176
225 228 238 240 239 237 246 236 219 279 63 69 51 141 261 268 165 219 214 219 197 166 178 147 139 103 98 117 131 145 149 156 153 147 150 147 145 141 141 149 166 147 124 137 160 168 172 173 177 179 177 179 180 177 169 164 168 168 168 169 165 166 169 168 164 171 180 183 183 179 175 171 170 173 174 172 172 173 172 173 176 183 193 192 190 183 169 173 185 199 128 95 91 119 149 158 167
226 227 235 236 243 245 255 290 342 321 8 38 27 166 255 303 193 178 197 202 165 169 178 160 139 113 116 128 136 150 154 154 148 149 154 151 146 139 140 139 152 160 142 143 156 163 171 176 178 179 177 179 180 175 169 168 169 168 169 170 169 170 170 169 170 181 191 190 185 180 179 177 179 187 182 181 180 178 177 178 183 188 193 188 179 169 154 152 157 155 110 96 100 99 112 135 161
225 231 239 233 242 258 291 322 293 295 331 326 315 297 245 261 248 168 187 187 174 188 177 173 156 128 129 135 147 151 150 152 147 152 151 151 149 141 143 145 151 162 160 151 151 161 172 180 182 181 177 178 181 175 172 171 167 168 171 173 173 172 171 175 179 189 196 194 189 185 186 179 181 191 185 190 187 175 177 182 189 192 193 185 170 159 143 133 138 127 112 120 110 96 104 149 178
221 226 242 242 241 264 279 240 250 266 304 293 305 275 240 213 216 197 197 187 189 195 171 186 163 129 135 150 159 151 150 153 150 155 152 150 148 143 147 147 151 159 163 153 152 161 169 182 186 183 177 176 179 173 173 172 167 170 172 174 175 173 173 176 184 195 199 201 199 193 193 185 188 197 191 197 190 178 181 183 189 190 187 181 166 158 151 141 133 127 119 117 110 106 142 176 180
225 229 239 251 260 285 271 231 232 265 260 261 256 255 270 282 221 215 218 199 193 202 172 179 142 127 147 166 160 155 155 153 154 158 150 150 148 147 150 146 149 152 158 156 159 163 165 179 186 187 181 177 177 173 173 173 171 173 173 174 174 176 180 180 187 198 202 205 207 204 198 187 190 196 195 199 192 187 189 186 192 191 188 181 169 165 166 159 142 152 142 103 120 153 175 174 172
227 238 234 248 259 268 265 237 149 233 250 243 241 271 318 278 237 216 234 220 173 192 160 148 132 132 155 164 159 162 159 156 157 155 151 156 153 153 158 154 154 151 153 159 168 175 172 177 183 186 181 174 176 176 174 173 173 174 174 176 177 182 187 188 191 199 208 209 210 224 213 191 191 198 204 210 194 183 187 193 195 190 191 181 171 175 171 162 148 162 159 131 157 171 168 169 171
224 244 235 238 245 243 249 254 220 223 242 244 252 285 272 248 244 204 229 234 149 173 165 180 177 146 157 160 170 172 160 157 154 155 158 158 158 161 165 160 156 156 156 155 166 178 177 177 179 180 178 173 174 174 171 172 175 174 176 179 183 188 190 191 188 193 208 208 207 221 225 209 205 205 211 216 203 187 192 206 198 189 192 180 175 175 156 151 151 160 157 158 171 167 166 164 168
223 242 246 241 238 238 241 247 246 235 237 242 246 262 249 237 255 231 221 216 158 173 181 186 194 168 162 159 171 170 157 156 154 160 163 158 170 172 166 159 157 161 158 155 162 168 171 171 173 175 177 175 172 172 170 173 177 176 179 182 188 192 194 196 193 197 206 211 213 219 234 234 222 213 208 212 220 203 194 204 196 191 193 182 178 168 150 155 162 164 156 161 164 157 166 160 164
220 234 245 245 236 236 237 239 240 237 235 236 236 243 241 234 254 259 225 208 155 172 187 178 185 177 155 147 160 163 157 160 159 163 164 162 174 171 163 159 161 168 163 161 162 164 168 167 168 172 173 169 169 173 173 174 179 182 184 185 190 193 196 199 199 208 213 218 221 223 237 238 226 221 216 209 228 226 202 202 187 185 192 187 180 167 165 165 161 163 152 153 156 151 161 158 163
227 236 241 242 239 234 232 236 233 232 231 229 235 236 235 225 221 241 220 198 172 184 186 178 189 176 154 142 149 159 161 161 162 165 168 171 172 167 163 160 162 170 170 166 160 163 168 166 168 170 169 169 171 174 174 176 181 185 189 190 192 193 198 199 201 213 221 223 220 227 237 238 226 222 227 212 219 236 218 208 184 183 195 196 180 162 165 160 153 158 150 154 154 150 156 154 160
242 253 251 241 239 237 233 238 229 229 230 222 231 238 237 217 207 239 218 180 185 195 185 188 203 174 150 145 149 161 167 163 166 170 175 177 171 167 166 167 169 170 172 166 161 167 169 165 167 170 171 171 172 174 175 178 182 186 190 192 195 195 198 199 204 215 223 224 219 231 239 238 228 219 229 223 220 237 224 213 204 190 199 202 178 155 162 158 151 159 156 158 150 144 148 146 156
241 244 258 245 236 236 232 234 226 224 227 217 221 232 236 215 213 238 216 169 193 204 191 201 208 164 141 148 162 172 174 175 177 175 180 178 169 167 165 169 172 171 169 162 164 170 168 167 171 174 173 170 171 177 180 181 181 187 192 193 194 193 197 203 210 219 219 216 217 233 240 234 227 220 229 228 227 237 229 217 211 196 199 204 177 157 164 157 155 163 156 152 142 138 140 137 147
241 237 243 247 237 231 223 224 221 219 222 214 211 222 231 216 214 228 213 179 203 207 195 213 208 153 141 155 168 174 177 188 185 177 182 173 162 162 163 171 170 168 166 161 166 169 167 174 177 174 170 170 173 177 182 184 182 186 189 190 191 193 202 210 216 224 223 223 225 233 240 235 231 236 239 233 231 234 229 219 210 199 198 203 189 173 167 155 159 161 150 148 140 135 133 132 144
235 234 232 241 243 233 213 210 212 213 210 200 205 232 233 220 208 214 212 189 202 212 197 213 195 141 148 162 163 172 183 192 185 180 183 168 160 160 164 172 164 164 166 162 165 168 168 172 175 173 171 175 179 180 178 179 184 189 185 180 186 198 206 210 217 226 232 237 238 238 244 245 240 245 241 231 228 223 224 222 210 206 203 209 206 186 166 154 159 156 152 154 143 137 137 142 155
222 229 228 224 235 247 215 195 200 206 198 190 207 240 236 243 222 201 200 189 201 218 201 210 186 145 154 163 161 174 186 194 184 180 179 160 159 158 160 166 161 163 165 160 163 169 169 166 170 177 178 179 182 181 174 169 178 182 178 179 189 204 208 211 223 234 244 246 242 246 250 244 241 247 239 230 226 213 210 217 217 218 206 210 211 188 164 155 159 159 160 156 147 146 146 149 160
213 220 233 222 217 243 220 179 190 206 201 191 207 234 232 251 234 178 177 189 208 219 208 211 184 149 154 158 164 174 186 201 189 181 175 161 164 156 156 162 159 163 160 153 159 168 171 168 171 178 178 179 179 173 170 175 171 150 159 181 193 203 205 213 229 237 243 242 239 247 251 243 236 240 235 231 224 202 198 206 220 224 199 202 215 188 164 165 174 171 165 161 156 153 153 154 151
213 210 228 233 219 231 218 175 185 205 212 203 201 225 243 238 146 146 174 196 212 218 215 207 166 152 167 169 173 175 190 208 193 183 177 162 162 156 156 158 153 159 156 148 156 163 171 178 177 175 173 173 176 176 167 174 176 154 161 176 178 181 180 191 213 223 217 220 225 229 242 246 234 230 229 234 226 196 201 212 216 219 189 198 222 194 171 181 190 180 171 172 163 157 164 162 161
215 212 216 232 226 224 222 198 180 198 211 211 199 209 240 239 161 158 188 202 214 218 218 204 171 169 177 171 174 180 195 206 192 183 179 166 162 158 155 154 149 152 150 144 153 158 170 188 185 180 177 169 174 178 160 159 169 156 157 158 153 156 153 156 170 188 195 203 212 214 229 242 233 227 222 230 228 198 204 219 211 203 182 200 219 200 194 198 198 189 181 181 169 171 184 177 180
222 219 214 225 228 215 229 222 165 190 207 204 214 212 221 238 224 188 186 200 217 220 217 210 191 177 170 169 179 190 197 193 187 184 176 165 162 158 150 150 152 154 149 142 158 169 177 183 182 180 178 171 171 171 158 158 158 138 140 146 140 145 146 148 155 166 181 190 202 209 221 233 232 226 221 230 232 208 206 216 210 200 199 226 215 193 204 205 201 204 193 187 178 183 196 186 185
249 229 217 224 229 207 224 222 153 186 216 198 218 229 217 228 234 216 193 195 212 222 215 213 207 178 165 174 181 191 192 177 184 188 175 163 156 149 144 147 153 154 150 156 172 181 182 177 178 179 175 173 171 167 163 158 149 140 142 145 140 143 146 146 147 150 158 160 166 196 210 214 221 214 217 227 223 213 213 217 217 196 186 211 202 183 197 198 194 202 200 199 191 188 201 195 187
270 249 231 221 228 215 213 205 156 175 222 210 212 226 229 223 226 230 208 188 202 223 215 211 217 185 161 170 177 188 190 171 181 188 175 159 143 136 141 152 158 156 163 177 182 181 180 175 175 180 171 169 170 167 166 149 137 140 135 130 128 128 128 131 137 138 139 132 124 130 175 197 213 197 211 224 215 216 215 210 206 171 164 183 194 185 185 190 192 201 204 199 192 191 204 205 190
250 255 249 225 221 222 209 181 148 169 203 227 223 222 230 222 225 235 207 180 202 219 215 209 217 197 162 169 180 186 188 174 179 185 168 144 145 156 165 170 174 174 179 185 180 173 175 167 166 175 154 152 157 155 149 130 122 130 124 120 116 111 119 128 131 122 108 103 115 122 112 108 150 177 223 230 196 211 216 214 205 186 183 185 198 197 187 191 199 206 205 193 194 199 204 213 198
239 242 241 236 214 214 212 172 167 196 202 236 242 227 228 224 226 229 194 194 214 211 214 211 215 208 168 164 179 183 187 187 176 165 145 142 163 173 172 174 177 178 182 182 173 172 172 163 174 185 138 146 150 139 137 129 133 145 141 138 129 120 127 128 122 112 103 93 99 117 118 116 131 138 164 247 192 213 220 227 222 202 195 173 183 202 200 205 210 213 208 197 200 202 201 215 211
227 234 238 238 215 214 226 179 178 200 203 236 256 241 228 225 217 213 193 214 219 192 206 217 215 216 164 153 178 188 187 189 157 139 152 173 179 176 170 175 178 178 178 176 179 183 180 180 186 164 151 165 155 137 141 146 147 150 136 126 116 109 112 115 113 109 107 103 94 99 110 115 127 131 137 156 197 216 213 216 226 207 187 160 167 183 193 207 208 209 213 210 209 206 200 211 220
218 223 236 246 233 214 197 160 174 209 207 209 224 237 232 215 207 207 195 207 207 183 203 214 210 217 176 153 173 187 181 169 138 144 180 184 181 180 172 167 169 172 170 169 182 188 187 196 188 159 162 163 151 139 141 146 143 134 119 108 106 110 116 120 123 118 113 116 113 104 105 111 119 134 148 157 172 190 200 208 215 213 186 169 168 161 165 185 185 193 207 215 214 210 203 202 228
228 200 218 245 256 230 201 182 192 226 228 188 199 230 240 203 204 206 189 191 196 191 203 208 203 208 195 168 168 172 160 147 158 185 194 181 176 178 167 158 164 171 172 169 176 181 184 193 181 164 167 160 153 147 143 145 139 126 117 113 117 122 127 127 130 129 121 125 130 126 137 131 112 117 148 145 155 196 227 230 220 217 219 208 174 167 186 191 188 198 199 207 216 219 217 206 208
244 189 197 223 241 238 223 214 218 228 241 178 197 228 244 212 205 190 180 186 191 192 199 206 202 197 200 193 169 158 152 147 170 195 196 183 172 165 155 161 171 175 181 179 179 184 185 190 184 164 161 161 162 158 151 150 141 131 127 122 121 127 139 138 133 132 129 131 129 119 122 122 117 134 151 140 134 144 181 181 164 161 160 190 175 172 187 184 190 203 196 202 212 214 224 214 196
240 197 183 211 223 230 228 225 234 233 232 215 206 223 233 215 198 173 176 192 188 188 192 200 204 194 201 195 155 148 163 164 173 186 187 178 162 153 154 165 169 169 178 184 188 192 191 195 197 182 170 166 164 157 153 153 142 133 131 124 124 132 141 139 130 132 135 136 134 127 128 133 138 146 143 134 120 103 124 145 150 144 132 131 143 154 166 163 172 188 185 191 199 194 209 215 199
245 209 181 210 217 222 227 224 233 231 231 239 213 209 221 204 181 171 185 199 187 184 189 192 196 198 204 180 137 141 158 161 166 170 171 164 155 157 163 164 157 149 157 172 188 195 192 194 201 197 186 176 172 159 152 159 147 134 137 134 130 137 140 138 137 141 139 137 139 140 142 146 151 151 146 133 117 114 136 132 126 127 130 139 138 133 146 153 160 172 175 184 190 186 200 211 194
234 215 205 213 210 215 227 227 236 230 227 240 216 203 221 210 174 180 188 197 191 185 181 173 177 194 195 155 132 144 149 149 158 161 159 155 152 157 161 163 165 162 161 172 188 195 190 186 194 199 193 184 186 172 157 163 157 149 158 149 132 141 148 147 148 148 142 142 145 144 146 148 151 152 152 142 133 152 162 137 114 97 104 123 120 117 129 142 152 167 179 188 197 195 197 200 182
203 214 211 203 199 205 215 215 224 225 224 233 212 197 216 219 165 156 122 92 115 160 146 133 145 184 170 144 147 150 140 143 156 160 156 151 149 151 155 166 175 176 180 185 190 192 187 186 193 196 191 186 188 184 168 166 165 165 169 161 146 150 155 154 154 153 151 154 153 151 151 151 152 150 148 145 140 143 141 124 112 101 104 111 105 108 123 132 139 150 160 166 182 186 175 169 163
211 219 212 201 197 196 209 210 207 215 225 226 204 194 205 191 105 96 91 78 67 94 116 120 129 205 172 159 160 146 133 140 154 160 157 149 147 146 152 163 169 174 183 188 190 190 186 188 191 186 181 181 187 192 189 180 176 174 171 168 164 158 155 153 152 153 154 158 159 156 152 148 149 149 143 140 137 131 125 121 119 119 129 127 112 107 110 112 119 128 138 141 142 147 141 133 135
208 215 212 206 201 196 211 212 206 210 210 205 194 192 200 170 125 103 88 83 94 108 121 128 144 196 183 156 152 149 148 149 152 156 153 148 147 147 153 158 163 172 178 179 185 187 183 181 182 180 179 185 193 204 214 203 192 190 184 177 170 158 152 151 152 158 157 157 157 153 151 148 149 151 145 138 134 135 140 144 145 143 141 134 125 119 111 100 97 106 116 119 116 115 119 120 118
205 222 223 214 210 210 219 222 220 215 195 186 184 190 214 194 133 121 131 130 109 109 117 123 135 160 156 142 143 148 149 146 148 152 151 150 149 148 153 155 160 169 168 168 177 181 179 179 181 183 189 195 201 212 230 228 210 205 204 195 180 162 153 149 151 158 156 155 155 153 151 149 148 148 148 147 144 147 152 151 155 156 148 133 119 113 107 104 103 105 106 107 111 114 115 119 123
199 221 228 221 217 220 229 195 43 293 224 186 180 185 174 132 132 137 139 130 109 104 110 116 121 124 119 117 125 132 134 137 145 151 148 148 145 145 150 155 159 163 160 163 171 174 177 180 183 189 198 204 206 212 227 236 227 214 211 209 201 183 169 159 156 164 164 157 152 152 152 150 149 149 150 148 142 137 135 135 146 156 155 146 131 119 114 116 116 117 115 111 112 115 116 119 129
195 215 226 220 222 236 242 192 136 272 255 197 182 191 134 125 155 156 135 121 112 107 106 109 108 106 106 104 109 118 121 126 137 146 144 142 141 142 144 147 152 155 156 158 160 166 171 171 176 188 195 200 204 210 221 231 231 220 212 215 213 204 196 183 178 183 178 165 156 156 159 157 157 160 159 150 141 135 132 131 139 150 154 155 145 133 131 127 120 121 126 127 129 130 131 132 135
223 215 218 210 227 251 259 234 187 207 230 210 192 203 184 164 176 163 141 126 119 118 114 113 110 103 99 97 102 110 110 112 121 131 134 135 138 140 141 145 149 155 162 162 159 163 168 167 174 186 191 195 204 213 220 225 226 220 218 224 222 212 206 197 194 192 181 172 170 172 173 171 170 172 168 159 151 146 142 142 144 148 152 152 144 137 133 127 125 133 140 145 149 146 143 141 140
252 263 233 211 228 230 224 232 215 208 224 220 199 204 207 194 183 173 153 124 119 127 124 115 108 104 101 98 101 107 110 112 115 121 129 133 138 142 144 143 143 150 163 167 167 169 173 175 180 187 193 200 208 214 221 228 229 226 226 227 223 216 211 201 194 185 172 170 178 182 182 179 177 177 172 164 156 150 147 148 150 152 156 156 150 143 136 131 137 145 146 149 150 144 142 142 140
236 270 258 222 236 240 221 227 230 224 224 221 209 202 195 45 133 158 135 112 116 120 114 107 100 101 106 106 106 107 110 116 117 120 129 138 147 155 156 153 149 152 164 171 175 177 182 187 190 192 196 202 208 214 222 229 232 233 230 225 221 220 217 202 186 171 160 162 173 180 181 177 175 177 173 161 152 152 150 146 149 152 155 156 154 147 141 139 138 135 135 143 143 137 137 138 134
209 229 236 222 221 229 235 240 240 241 230 218 220 203 133 47 35 92 102 106 116 113 107 100 95 96 97 95 96 99 103 111 114 113 119 133 143 150 159 168 170 167 169 174 178 184 190 194 196 200 204 207 213 220 224 227 231 233 231 226 222 220 214 200 187 176 172 178 179 178 178 175 173 174 168 157 151 155 153 146 145 148 151 155 155 148 141 137 135 134 135 136 131 126 130 136 136
216 213 221 225 222 219 228 231 225 234 244 239 233 203 104 52 12 56 88 114 121 115 107 96 93 95 94 91 94 100 104 109 112 114 119 124 124 128 141 155 160 162 168 175 181 188 195 200 199 201 206 211 218 225 225 226 227 231 234 228 221 222 217 206 200 195 203 211 196 180 177 175 172 166 158 157 159 157 154 154 150 149 150 151 149 144 137 136 144 149 147 138 127 127 138 142 139